www.pogodaiklimat.ru

Погода и климат >> Архив погоды >> Россия >> Краснодарский край >> Анапа


АРХИВ ПОГОДЫ в Анапе

Время (UTC), дата Ветер
(напр.,м/с)
 
Видим.   Явления Облачность Т
(С)
Тd
(С)
f
(%)
Тe
(С)
Тes
(С)
Комфортность P
(гПа)
Po
(гПа)
Тmin
(С)
Tmax
(С)
R
(мм)
R24
(мм)
S
(см)
00 16.07 СВ 1 10 км 3/0
[Ci sp]
+20.0 +16.0 78 +24 +24 комфорт 1012.9 1009.1
03 16.07 С 3 10 км 3/0
[Ac trans Ci sp]
+20.4 +16.3 77 +24 +24 комфорт 1013.9 1010.0 +20.0
06 16.07 С 2 20 км ясно +25.1 +15.5 55 +28 +38 жарко 1014.2 1010.4
09 16.07 С 3 20 км ясно +27.9 +16.1 49 +31 +47 душно 1013.8 1010.1
12 16.07 С 4 20 км 1/0
[Ci sp]
+27.5 +16.3 50 +31 +40 душно 1013.9 1010.1
15 16.07 С 3 20 км ясно +26.2 +15.1 50 +29 +31 жарко 1013.0 1009.3 +28.1
18 16.07 С 3 10 км 8/0
[Ac cast Ci sp]
+23.3 +15.9 63 +28 +28 душно 1013.3 1009.5
21 16.07 СВ 2 10 км 9/9 600 м
[Sc]
+22.4 +17.1 72 +27 +27 душно 1013.0 1009.2
00 17.07 СВ 3 10 км 9/9 600 м
[Cb cap]
+23.2 +18.8 76 +29 +29 душно 1011.6 1007.8
03 17.07 СВ 4 10 км 10/0
[Ci sp]
+22.7 +19.8 84 +29 +29 очень
душно
1011.3 1007.5 +22.3
06 17.07 СВ 4 20 км 8/0
[Ac As]
+25.7 +20.0 71 +32 +34 очень
душно
1011.3 1007.5
09 17.07 СВ 3 20 км 5/0
[Ac As]
+29.2 +20.9 61 +36 +46 очень
душно
1011.3 1007.6
12 17.07 Ю 1 20 км 8/4 600 м
[Cu hum Ac As]
+28.9 +21.6 65 +37 +42 очень
душно
1010.9 1007.2
15 17.07 С 5
{11}
20 км ясно +28.3 +20.8 64 +35 +37 очень
душно
1010.6 1006.9 +32.3
18 17.07 С 4
{10}
10 км ясно +25.3 +21.4 79 +32 +32 очень
душно
1011.6 1007.8
21 17.07 СВ 5 10 км ясно +23.5 +20.1 81 +29 +29 душно 1012.2 1008.4
00 18.07 СВ 6-10
{10}
10 км 4/0
[Ci sp]
+22.2 +19.0 82 +28 +28 душно 1012.1 1008.3
03 18.07 СВ 6
{10}
10 км 6/3 600 м
[Sc Ac As]
+21.9 +19.0 84 +27 +27 душно 1012.3 1008.4 +21.6
06 18.07 С 5 10 км 5/3 600 м
[Sc Ac trans]
+24.7 +19.0 71 +30 +33 очень
душно
1013.2 1009.4
09 18.07 С 5-10
{11}
20 км 6/0
[Ci sp]
+29.0 +19.5 57 +35 +43 очень
душно
1012.3 1008.6
12 18.07 СВ 5
{10}
20 км 4/0
[Ci sp]
+31.7 +19.2 48 +37 +44 очень
душно
1011.2 1007.5
15 18.07 С 5
{11}
20 км ясно +30.6 +20.2 54 +37 +39 очень
душно
1010.3 1006.6 +31.8
18 18.07 СВ 5
{12}
10 км ясно +26.4 +18.3 61 +31 +31 душно 1010.9 1007.1
21 18.07 СВ 4 10 км ясно +24.5 +17.8 66 +29 +29 душно 1010.6 1006.9
00 19.07 СВ 5 н/о н/о +23.4 +16.5 65 +28 +28 душно 1010.7 1006.9
03 19.07 СВ 6-10
{12}
10 км 6/3 600 м
[Sc Ac trans]
+22.4 +15.2 64 +26 +26 жарко 1010.2 1006.4 +22.3
06 19.07 СВ 7-12
{14}
10 км 9/0
[Ci sp]
+24.2 +15.9 60 +27 +30 жарко 1010.4 1006.6 +22.3
09 19.07 СВ 7-12
{14}
20 км 5/1 600 м
[Cu med, cong Ci sp]
+28.4 +18.1 54 +33 +37 очень
душно
1010.2 1006.5
12 19.07 СВ 7-12
{13}
10 км 9/1 600 м
[Cu hum Ac trans Ci sp]
+29.1 +17.9 51 +34 +35 очень
душно
1009.6 1005.8
15 19.07 С 6-11
{13}
10 км 9/8 600 м
[Cu Sc Ci sp]
+25.7 +16.4 56 +29 +29 душно 1010.6 1006.8 +29.5
18 19.07 СВ 6-11
{15}
10 км гроза, ливневой дождь 9/9 300 м
[Cb cap]
+21.6 +17.0 75 +26 +26 душно 1010.6 1006.8
21 19.07 Ю 1
{12}
4000 м гроза, ливневой дождь 10/10 300 м
[Cb cap]
+18.3 +17.9 98 +20 +20 прохладно 1013.2 1009.3
00 20.07 В 1 4000 м слабый ливневой дождь {гроза} 10/10 300 м
[Cb cap]
+19.2 +17.7 91 +22 +22 комфорт 1011.4 1007.5
03 20.07 СВ 2 4000 м {ливн. осадки} 10/10 300 м
[Cb cap]
+19.4 +18.1 92 +22 +22 комфорт 1011.0 1007.2 +18.1 91
06 20.07 С 2 4000 м слабый ливневой дождь 10/10 300 м
[Cb cap]
+19.2 +18.3 95 +22 +22 комфорт 1011.4 1007.5
09 20.07 С 3 4000 м слабый ливневой дождь 10/10 300 м
[Cb cap]
+19.9 +18.8 93 +23 +23 комфорт 1011.2 1007.3
12 20.07 СВ 4 4000 м слабый ливневой дождь 10/10 300 м
[Cb cap]
+20.0 +19.2 95 +23 +23 комфорт 1011.4 1007.6
15 20.07 СВ 4
{10}
10 км {ливн. осадки} 8/3 600 м
[Cb cap Ac trans Ci sp]
+20.6 +15.4 72 +24 +24 комфорт 1011.0 1007.2 +21.0 13
18 20.07 В 5 10 км {ливн. осадки} 4/3 600 м
[Cb cap Ac und]
+18.8 +15.8 83 +20 +20 холодно 1011.5 1007.6
21 20.07 СВ 2
{10}
10 км ясно +17.9 +15.8 88 +18 +18 холодно 1012.5 1008.6
00 21.07 СВ 3 4000 м дымка ясно +17.2 +15.8 91 +17 +17 прохладно 1012.4 1008.5
03 21.07 СВ 3 10 км ясно +18.6 +16.7 89 +20 +20 прохладно 1012.8 1008.9 +17.1
06 21.07 СВ 4 20 км ясно +23.6 +17.8 70 +28 +34 душно 1013.2 1009.4
09 21.07 СВ 5 20 км 8/3 600 м
[Cu hum Ac As]
+25.7 +17.5 61 +30 +33 душно 1013.3 1009.6
12 21.07 СВ 4
{10}
20 км 5/5 600 м
[Cu hum]
+27.4 +17.9 56 +32 +36 очень
душно
1013.2 1009.4
15 21.07 СВ 4 20 км 9/6 600 м
[Sc Ac As]
+26.4 +18.1 60 +31 +31 душно 1012.9 1009.1 +27.7
18 21.07 С 3 10 км 3/3 600 м
[Sc]
+24.4 +19.0 72 +29 +29 душно 1013.2 1009.4
21 21.07 СВ 3 10 км 4/4 600 м
[Sc]
+22.9 +19.4 81 +29 +29 очень
душно
1012.9 1009.0
00 22.07 СВ 3 10 км 3/3 600 м
[Sc]
+22.4 +19.4 83 +28 +28 душно 1012.2 1008.3
03 22.07 СВ 4 10 км 9/9 600 м
[Sc]
+22.0 +17.7 77 +27 +27 душно 1012.1 1008.3 +21.9
06 22.07 СВ 2 20 км 10/10 600 м
[Cb cap]
+23.4 +17.5 69 +29 +29 душно 1012.6 1008.8
09 22.07 СВ 4 20 км 10/10 600 м
[Cb cap]
+25.6 +18.5 65 +30 +30 душно 1012.4 1008.6
12 22.07 СВ 1 10 км 10/10 600 м
[Cb cap]
+26.2 +19.5 67 +32 +32 очень
душно
1012.2 1008.5
15 22.07 ЮЗ 1 10 км 10/10 600 м
[Cb cap]
+23.7 +21.7 89 +30 +30 очень
душно
1012.4 1008.6 +26.8
18 22.07 СВ 3 10 км 9/9 600 м
[Cb cap]
+23.5 +18.0 71 +28 +28 душно 1012.8 1009.0
21 22.07 СВ 4 10 км 3/0
[Ci fib]
+22.0 +15.9 68 +26 +26 душно 1012.5 1008.7

 

Местоположение метеостанции Анапа (Краснодарский край, Россия): широта 44.88 долгота 37.28 высота над уровнем моря 32 м.

В архиве по умолчанию представлена погода в Анапе за последнюю неделю. Архивные данные за месяц целиком и за предыдущие месяцы, начиная с января 2011 года, Вы можете получить, выбрав интересующий диапазон дат из раскрывающегося списка и нажав кнопку "Ввод!".

Внимание! Время в таблицах - всемирное. Для получения местного времени необходимо прибавить поправку, которая в Анапе равна 3 ч.

Смотрите также архив погоды в соседних городах и на ближайших метеорологических станциях:

Погода в Новороссийске (Краснодарский край, Россия) (48 км)
Погода в Темрюке (Краснодарский край, Россия) (50 км)
Погода в Крымске (Краснодарский край, Россия) (57 км)
Погода в Тамани (Краснодарский край, Россия) (58 км)
Погода в Геленджике (Краснодарский край, Россия) (72 км)
Погода в Славянске-на-Кубани (Краснодарский край, Россия) (80 км)
Погода в Керчи (Крым, Россия) (86 км)
Погода в Джубге (Краснодарский край, Россия) (129 км)
Погода на Мысовом (Крым, Россия) (131 км)
Погода в Краснодаре (Краснодарский край, Россия) (139 км)

Пояснения к столбцам:

Ветер - указаны скорость ветра в м/с - средняя за 10 мин, порывы в срок и между сроками (в фигурных скобках) и направление, откуда дует ветер: С - северный, СВ - северо-восточный, В - восточный, ЮВ - юго-восточный, Ю - южный, ЮЗ - юго-западный, З - западный, СЗ - северо-западный.
Видимость - горизонтальная дальность видимости в метрах или километрах. При видимости от 1 до 10 км при отсутствии осадков обычно наблюдается дымка, при ухудшении видимости до 1 км и менее - туман. В сухую погоду видимость может ухудшаться дымом, пылью или мглою.
Явления - указаны атмосферные явления, наблюдавшиеся в срок или в последний час перед сроком; фигурными скобками обозначены явления, наблюдавшиеся между сроками (за 1-3 часа до срока); квадратными скобками обозначены град или гололедные отложения с указанием их диаметра в мм.
Облачность - указаны через наклонную черту общая и нижняя облачность в баллах и высота нижней границы облаков в метрах; квадратными скобками обозначены формы облаков: Ci - перистые, Cs - перисто-слоистые, Cc - перисто-кучевые, Ac - высококучевые, As - высокослоистые, Sc - слоисто-кучевые, Ns - слоисто-дождевые, Cu - кучевые, Cb - кучево-дождевые. Подробнее классификацию облаков см. в Атласе облаков (PDF).
T - Температура воздуха - температура, измеренная на высоте 2 м над землей.
Td - Температура точки росы - температура, при понижении до которой содержащийся в воздухе водяной пар достигнет насыщения.
f - Относительная влажность воздуха - влажноcть воздуха, измеренная на высоте 2 м над землей.
Te - Эффективная температура - температура, которую ощущает одетый по сезону человек в тени. Характеристика душности погоды. При расчете учитывается влияние влажности воздуха и скорости ветра на теплоощущения человека.
Tes - Эффективная температура на солнце - температура, которую ощущает человек, с поправкой на солнечный нагрев. Характеристика знойности погоды. Зависит от высоты солнца над горизонтом, облачности и скорости ветра. Ночью, в пасмурную погоду, а также при ветре 12 м/с и более поправка равна нулю.
P - Атмосферное давление - приведенное к уровню моря атмосферное давление.
Po - Атмосферное давление - измеренное на уровне метеостанции атмосферное давление.
Tmin - Минимальная температура - минимум температуры воздуха на высоте 2 м над землей.
Tmax - Максимальная температура - максимум температуры воздуха на высоте 2 м над землей.
R - Количество осадков - Количество выпавших осадков за период времени, мм. При наведении курсора мыши на число - период времени, за который выпало указанное количество осадков.
R24 - Количество осадков - Количество выпавших осадков за 24 часа, мм.
S - Снежный покров - Высота снежного покрова, см. При наведении курсора мыши на число - состояние снежного покрова и степень покрытия местности в баллах.